Погода в Ито

Япония     34°56′35″N   139°05′39″E
темп.,
°C
ветер,
м/с
пор.,
м/с
влажн.,
%
обл.,
%
осадки,
мм/ч
давл.,
гПа
погр.,
м
12 апреля, пн
пн1200:00+8в117519 0.0 103482
03:00+9всв117654 0.1 103368
06:00+10всв237788 0.1 1034137
09:00+11в3466100 0.3 1034997
12:00+13вюв445788 0.1 10321531
15:00+13вюв345747 0.1 10301231
18:00+11вюв236777 0.0 1030380
21:00+10вюв2267100 0.0 1031160
13 апреля, вт
вт1300:00+10в1171100 0.1 1029112
03:00+10ююз128197 0.4 102680
06:00+10з1186100 0.3 102544
09:00+13юз2473100 0.7 1023873
12:00+12з2384100 0.4 1020483
15:00+11з1294100 1.1 1018237
18:00+12зюз2397100 1.4 1016155
21:00+12зюз2398100 2.3 1015139
14 апреля, ср
ср1400:00+13юз2298100 3.0 1014114
03:00+13з2299100 5.3 1011128
06:00+14юз2299100 17.1 101089
09:00+14юз1299100 32.1 100897
12:00+14ссв23100100 18.9 1005169
15:00+16ссв229274 23.3 1003423
18:00+14в479174 0.1 1006437
21:00+11всв7109291 0.8 1011841
15 апреля, чт
чт1500:00+8всв7108087 0.1 1014793
03:00+7всв587696 0.1 1017771
06:00+7всв586269 0.0 1020804
09:00+9всв555745 0.0 1022972
12:00+11в445114 0.0 1021934
15:00+11вюв334420 0.0 1021930
18:00+9юв3667100 0.0 1024433
21:00+8вюв3472100 0.0 1026349
16 апреля, пт
пт1600:00+9в3571100 0.0 1025372
03:00+8св127471 0.0 102587
06:00+9св2275100 0.0 1026156
09:00+12в2365100 0.0 1026852
12:00+13в4566100 0.1 10241122
15:00+12вюв357598 0.3 1024841
18:00+11юв2380100 0.2 1024282
21:00+11вюв1181100 0.3 102588